Overview Statistics Trail Chart Weather Telemetry Raw packets
 

This is the latest recevied weather packets stored in our database for station/object KK7MLS-13. If no packets are shown the sender has not sent any weather packets the latest 10 day(s).

<< 99 100 101 102 103 104 105 >>
Time Temp. Humidity Pressure Rain* Wind** Luminosity Snow
1787930274 14.44° C 88% 1019.1 hPa 0 mm - 132 W/m² -
1787929974 14.44° C 88% 1019.1 hPa 0 mm - 52 W/m² -
1787929672 13.89° C 90% 1019.1 hPa 0 mm - 62 W/m² -
1787929368 13.89° C 90% 1019.2 hPa 0 mm - 38 W/m² -
1787929065 13.89° C 90% 1019 hPa 0 mm - 48 W/m² -
1787928761 13.89° C 90% 1019.1 hPa 0 mm - 37 W/m² -
1787928459 13.89° C 90% 1018.9 hPa 0 mm - 24 W/m² -
1787928158 13.89° C 90% 1019.1 hPa 0 mm - 31 W/m² -
1787927858 13.33° C 91% 1018.9 hPa 0 mm - 37 W/m² -
1787927552 13.33° C 91% 1018.8 hPa 0 mm - 39 W/m² -
1787927247 13.33° C 91% 1018.7 hPa 0 mm - 37 W/m² -
1787926943 13.33° C 92% 1018.9 hPa 0 mm - 33 W/m² -
1787926639 12.78° C 92% 1018.8 hPa 0 mm - 32 W/m² -
1787926336 12.78° C 92% 1018.7 hPa 0 mm - 31 W/m² -
1787926032 12.78° C 92% 1018.5 hPa 0 mm - 28 W/m² -
1787925726 12.78° C 92% 1018.6 hPa 0 mm - 23 W/m² -
1787925425 12.78° C 92% 1018.4 hPa 0 mm - 18 W/m² -
1787925125 12.78° C 92% 1018.5 hPa 0 mm - 14 W/m² -
1787924824 12.78° C 92% 1018.5 hPa 0 mm - 11 W/m² -
1787924519 12.78° C 92% 1018.4 hPa 0 mm - 7 W/m² -
1787924214 12.78° C 92% 1018.3 hPa 0 mm - 5 W/m² -
1787923909 12.78° C 92% 1018.5 hPa 0 mm - 3 W/m² -
1787923609 12.78° C 92% 1018.3 hPa 0 mm - 2 W/m² -
1787923304 12.78° C 92% 1018.4 hPa 0 mm - 1 W/m² -
1787923004 12.78° C 92% 1018.4 hPa 0 mm - 0 W/m² -

* Rain latest hour (hover to see other rain measurements)
** Current wind speed in m/s (hover to see current wind gust speed)